| time (UTC) | temp F | wind direction | speed knots | gust knots | rain 1hr in | rain 24hr in | rain mn in | humidity % | barometer mb |
| 20260506040022 | 62 | 30 | 2.6 | 9.6 | 0.00 | 0.00 | 0.00 | 77 | 1010.1 |
| 20260506034523 | 63 | 355 | 2.6 | 7.8 | 0.00 | 0.00 | 0.00 | 77 | 1009.9 |
| 20260506033024 | 63 | 30 | 2.6 | 9.6 | 0.00 | 0.00 | 0.00 | 77 | 1009.6 |
| 20260506024544 | 67 | 360 | 1.7 | 6.1 | 0.00 | 0.00 | 0.00 | 76 | 1008.9 |
| 20260506023023 | 68 | 305 | 2.6 | 7.0 | 0.00 | 0.00 | 0.00 | 76 | 1008.2 |
| 20260506021528 | 68 | 325 | 2.6 | 8.7 | 0.00 | 0.00 | 0.00 | 75 | 1008.0 |
| 20260506020013 | 69 | 324 | 3.5 | 7.8 | 0.00 | 0.00 | 0.00 | 74 | 1007.7 |
| 20260506014520 | 70 | 53 | 2.6 | 8.7 | 0.00 | 0.00 | 0.00 | 73 | 1007.3 |
| 20260506013037 | 71 | 349 | 3.5 | 8.7 | 0.00 | 0.00 | 0.00 | 72 | 1007.1 |
| 20260506011523 | 72 | 13 | 1.7 | 6.1 | 0.00 | 0.00 | 0.00 | 71 | 1006.6 |
| 20260506010009 | 73 | 309 | 0.9 | 7.0 | 0.00 | 0.00 | 0.00 | 70 | 1006.8 |
| 20260506004506 | 73 | 344 | 0.9 | 5.2 | 0.00 | 0.00 | 0.00 | 69 | 1006.7 |
| 20260506003005 | 74 | 288 | 3.5 | 8.7 | 0.00 | 0.00 | 0.00 | 68 | 1006.5 |
| 20260506000004 | 77 | 42 | 2.6 | 9.6 | 0.00 | 0.00 | 0.00 | 66 | 1005.9 |
| 20260505234506 | 78 | 319 | 3.5 | 9.6 | 0.00 | 0.00 | 0.00 | 64 | 1005.7 |
| 20260505233021 | 79 | 14 | 4.3 | 13.9 | 0.00 | 0.00 | 0.00 | 62 | 1005.4 |
| 20260505231504 | 82 | 35 | 3.5 | 12.2 | 0.00 | 0.00 | 0.00 | 60 | 1005.4 |
| 20260505224504 | 86 | 340 | 1.7 | 9.6 | 0.00 | 0.00 | 0.00 | 50 | 1004.9 |
| 20260505223006 | 88 | 5 | 3.5 | 7.8 | 0.00 | 0.00 | 0.00 | 47 | 1004.5 |
| 20260505221509 | 89 | 312 | 4.3 | 11.3 | 0.00 | 0.00 | 0.00 | 45 | 1004.3 |
| 20260505220004 | 90 | 271 | 4.3 | 7.8 | 0.00 | 0.00 | 0.00 | 51 | 1004.2 |
| 20260505213011 | 90 | 245 | 1.7 | 12.2 | 0.00 | 0.00 | 0.00 | 52 | 1004.5 |
| 20260505211508 | 90 | 248 | 2.6 | 8.7 | 0.00 | 0.00 | 0.00 | 53 | 1004.5 |
| 20260505210008 | 89 | 201 | 4.3 | 10.4 | 0.00 | 0.00 | 0.00 | 54 | 1004.7 |
| 20260505204507 | 88 | 255 | 2.6 | 9.6 | 0.00 | 0.00 | 0.00 | 55 | 1004.8 |
| 20260505203009 | 89 | 300 | 2.6 | 9.6 | 0.00 | 0.00 | 0.00 | 55 | 1005.1 |
| 20260505201510 | 89 | 171 | 1.7 | 10.4 | 0.00 | 0.00 | 0.00 | 55 | 1005.2 |
| 20260505200025 | 88 | 210 | 2.6 | 12.2 | 0.00 | 0.00 | 0.00 | 57 | 1005.2 |
| 20260505194512 | 87 | 196 | 4.3 | 11.3 | 0.00 | 0.00 | 0.00 | 56 | 1005.2 |
| 20260505191512 | 86 | 240 | 3.5 | 10.4 | 0.00 | 0.00 | 0.00 | 58 | 1005.1 |
| 20260505190011 | 86 | 202 | 2.6 | 7.8 | 0.00 | 0.00 | 0.00 | 60 | 1005.3 |
| 20260505184517 | 85 | 209 | 4.3 | 13.0 | 0.00 | 0.00 | 0.00 | 59 | 1005.4 |
| 20260505183012 | 85 | 197 | 4.3 | 12.2 | 0.00 | 0.00 | 0.00 | 62 | 1005.2 |
| 20260505180016 | 84 | 188 | 3.5 | 12.2 | 0.00 | 0.00 | 0.00 | 66 | 1005.3 |
| 20260505174516 | 83 | 194 | 4.3 | 10.4 | 0.00 | 0.00 | 0.00 | 66 | 1005.4 |
| 20260505173034 | 82 | 190 | 3.5 | 13.0 | 0.00 | 0.00 | 0.00 | 69 | 1005.5 |
| 20260505164529 | 79 | 236 | 5.2 | 12.2 | 0.00 | 0.00 | 0.00 | 73 | 1005.5 |
| 20260505163017 | 78 | 128 | 4.3 | 13.9 | 0.00 | 0.00 | 0.00 | 74 | 1005.5 |
| 20260505161516 | 78 | 218 | 4.3 | 15.6 | 0.00 | 0.00 | 0.00 | 74 | 1005.4 |
| 20260505151505 | 75 | 188 | 5.2 | 17.4 | 0.00 | 0.00 | 0.00 | 78 | 1005.1 |
| 20260505124507 | 72 | 209 | 5.2 | 11.3 | 0.00 | 0.00 | 0.00 | 83 | 1004.8 |
| 20260505123014 | 71 | 182 | 4.3 | 15.6 | 0.00 | 0.00 | 0.00 | 83 | 1004.4 |
| 20260505121514 | 71 | 161 | 4.3 | 13.9 | 0.00 | 0.00 | 0.00 | 83 | 1004.4 |
| 20260505114510 | 72 | 171 | 4.3 | 15.6 | 0.00 | 0.00 | 0.00 | 82 | 1004.3 |
| 20260505113013 | 71 | 227 | 4.3 | 11.3 | 0.00 | 0.00 | 0.00 | 83 | 1004.3 |
| 20260505111516 | 71 | 165 | 6.1 | 15.6 | 0.00 | 0.00 | 0.00 | 83 | 1003.9 |
| 20260505101516 | 71 | 202 | 7.0 | 15.6 | 0.00 | 0.00 | 0.00 | 83 | 1004.1 |
| 20260505100016 | 71 | 199 | 4.3 | 16.5 | 0.00 | 0.00 | 0.00 | 83 | 1004.2 |
| 20260505094521 | 71 | 131 | 5.2 | 14.8 | 0.00 | 0.00 | 0.00 | 83 | 1004.2 |
| 20260505093009 | 71 | 209 | 4.3 | 14.8 | 0.00 | 0.00 | 0.00 | 83 | 1004.3 |
| 20260505091509 | 71 | 204 | 4.3 | 12.2 | 0.00 | 0.00 | 0.00 | 83 | 1004.6 |
| 20260505090014 | 71 | 242 | 4.3 | 13.9 | 0.00 | 0.00 | 0.00 | 83 | 1004.6 |
| 20260505084522 | 71 | 211 | 2.6 | 11.3 | 0.00 | 0.00 | 0.00 | 82 | 1004.6 |
| 20260505083031 | 71 | 197 | 3.5 | 11.3 | 0.00 | 0.00 | 0.00 | 82 | 1004.6 |
| 20260505081507 | 71 | 169 | 3.5 | 13.9 | 0.00 | 0.00 | 0.00 | 81 | 1004.7 |
| 20260505080014 | 72 | 171 | 4.3 | 15.6 | 0.00 | 0.00 | 0.00 | 80 | 1004.8 |
| 20260505074520 | 72 | 198 | 4.3 | 11.3 | 0.00 | 0.00 | 0.00 | 80 | 1004.9 |
| 20260505073022 | 72 | 162 | 4.3 | 12.2 | 0.00 | 0.00 | 0.00 | 79 | 1005.3 |
| 20260505071525 | 72 | 173 | 4.3 | 13.0 | 0.00 | 0.00 | 0.00 | 78 | 1005.4 |
| 20260505070011 | 72 | 179 | 3.5 | 13.9 | 0.00 | 0.00 | 0.00 | 78 | 1005.7 |
| 20260505064516 | 72 | 202 | 4.3 | 11.3 | 0.00 | 0.00 | 0.00 | 77 | 1005.9 |
| 20260505063031 | 72 | 200 | 2.6 | 12.2 | 0.00 | 0.00 | 0.00 | 77 | 1005.9 |
| 20260505061530 | 72 | 198 | 4.3 | 12.2 | 0.00 | 0.00 | 0.00 | 76 | 1006.1 |
| 20260505060020 | 72 | 138 | 2.6 | 13.0 | 0.00 | 0.00 | 0.00 | 76 | 1005.9 |
| 20260505054518 | 73 | 173 | 2.6 | 11.3 | 0.00 | 0.00 | 0.00 | 75 | 1006.1 |
| 20260505053018 | 73 | 158 | 5.2 | 12.2 | 0.00 | 0.00 | 0.00 | 74 | 1006.4 |
| 20260505051526 | 73 | 193 | 3.5 | 12.2 | 0.00 | 0.00 | 0.00 | 74 | 1006.7 |